Tracking 29892 objects as of 21-Nov-2024
HD Live streaming from Space Station
objects crossing your sky now

IRIDIUM 165

Track IRIDIUM 165 now!
10-day predictions
IRIDIUM 165 is classified as:


NORAD ID: 43572
Int'l Code: 2018-061D
Perigee: 783.3 km
Apogee: 786.3 km
Inclination: 86.4 °
Period: 100.4 minutes
Semi major axis: 7155 km
RCS: Unknown
Launch date: July 25, 2018
Source: United States (US)
Launch site: AIR FORCE WESTERN TEST RANGE (AFWTR)
Your satellite tracking list
Your tracking list is empty




NASA's NSSDC Master Catalog

Two Line Element Set (TLE):
1 43572U 18061D   24325.86123362  .00000170  00000-0  53618-4 0  9999
2 43572  86.3932 296.3641 0002129  88.2413 271.9027 14.34217151331212
Source of the keplerian elements: AFSPC